Tracking 22779 objects as of 13-Apr-2021
HD Live streaming from Space Station
objects crossing your sky now

INTELSAT 6B (PAS 6B)

Track INTELSAT 6B (PAS 6B) now!
INTELSAT 6B (PAS 6B) is classified as:


NORAD ID: 25585
Int'l Code: 1998-075A
Perigee: 36,052.7 km
Apogee: 36,165.7 km
Inclination: 9.4 °
Period: 1,452.2 minutes
Semi major axis: 42480 km
RCS: 21.1435 m2 (large)
Launch date: December 22, 1998
Source: United States (US)
Launch site: FRENCH GUIANA (FRGUI)

voice and video communcations; 32 Ku-band; South America.
aabbcc
Your satellite tracking list
Your tracking list is empty




NASA's NSSDC Master Catalog

Two Line Element Set (TLE):
1 25585U 98075A   21102.59496736 -.00000301  00000-0  00000-0 0  9994
2 25585   9.3933  43.0483 0013303  98.5770  63.7018  0.99156872 81238
Source of the keplerian elements: AFSPC